Time, Entry, RPM, Speed kph, Throttle, Air Flow, RPM-Pump, Barometer
10:27:42.789, 1, 750, 0, 0.48, 1.74, 746, 986
10:27:42.867, 2, 751, 0, 0.48, 1.74, 748, 986
10:27:42.945, 3, 753, 0, 0.48, 1.72, 750, 986
10:27:43.023, 4, 749, 0, 0.48, 1.78, 750, 986
10:27:43.101, 5, 750, 0, 0.48, 1.75, 746, 986
10:27:43.195, 6, 748, 0, 0.48, 1.74, 746, 986
10:27:43.273, 7, 752, 0, 0.48, 1.74, 750, 986
10:27:43.336, 8, 748, 0, 0.48, 1.74, 748, 986
10:27:43.430, 9, 748, 0, 0.48, 1.72, 748, 986
10:27:43.508, 10, 751, 0, 0.48, 1.75, 746, 986
10:27:43.586, 11, 753, 0, 0.48, 1.72, 752, 986
10:27:43.664, 12, 752, 0, 0.48, 1.75, 750, 986
10:27:43.742, 13, 751, 0, 0.48, 1.74, 750, 986
10:27:43.820, 14, 748, 0, 0.48, 1.79, 748, 986
10:27:43.898, 15, 751, 0, 0.48, 1.76, 748, 986
10:27:43.992, 16, 751, 0, 0.48, 1.77, 748, 986
10:27:44.070, 17, 751, 0, 0.48, 1.74, 750, 986
10:27:44.148, 18, 750, 0, 0.48, 1.78, 748, 986
10:27:44.226, 19, 752, 0, 0.48, 1.76, 750, 986
10:27:44.305, 20, 750, 0, 0.48, 1.76, 750, 986
10:27:44.383, 21, 750, 0, 0.48, 1.77, 748, 986
10:27:44.476, 22, 749, 0, 0.48, 1.77, 748, 986
10:27:44.539, 23, 752, 0, 0.48, 1.74, 748, 986
10:27:44.633, 24, 749, 0, 0.48, 1.78, 748, 986
10:27:44.711, 25, 749, 0, 0.48, 1.76, 748, 986
10:27:44.789, 26, 749, 0, 0.48, 1.76, 746, 986
10:27:44.867, 27, 752, 0, 0.48, 1.75, 750, 986
10:27:44.945, 28, 750, 0, 0.48, 1.77, 750, 986
10:27:45.023, 29, 752, 0, 0.48, 1.78, 748, 986
10:27:45.101, 30, 753, 0, 0.48, 1.84, 752, 986
10:27:45.180, 31, 753, 0, 0.48, 1.86, 752, 986
10:27:45.258, 32, 751, 0, 0.5, 1.88, 750, 986
10:27:45.351, 33, 752, 0, 0.5, 1.88, 752, 986
10:27:45.430, 34, 751, 0, 0.5, 1.89, 748, 986
10:27:45.508, 35, 752, 0, 0.5, 1.87, 750, 986
10:27:45.586, 36, 755, 0, 0.62, 1.86, 748, 986
10:27:45.664, 37, 840, 0, 0.76, 2.02, 766, 986
10:27:45.758, 38, 1011, 0, 0.76, 2.21, 940, 986
10:27:45.820, 39, 1158, 0, 0.72, 2.42, 1116, 986
10:27:45.898, 40, 1210, 0, 0.7, 2.5, 1204, 986
10:27:45.992, 41, 1213, 0, 0.68, 2.48, 1210, 986
10:27:46.070, 42, 1201, 0, 0.68, 2.49, 1204, 986
10:27:46.148, 43, 1196, 0, 0.68, 2.46, 1198, 986
10:27:46.226, 44, 1210, 0, 0.78, 2.48, 1196, 986
10:27:46.305, 45, 1271, 0, 0.88, 2.48, 1244, 986
10:27:46.383, 46, 1330, 0, 0.9, 2.56, 1310, 986
10:27:46.586, 47, 1390, 0, 0.94, 2.66, 1368, 986
10:27:46.773, 48, 1531, 0, 0.94, 2.77, 1518, 986
10:27:46.851, 49, 1601, 0, 0.94, 2.86, 1602, 986
10:27:46.930, 50, 1623, 0, 0.94, 2.86, 1622, 986
10:27:47.039, 51, 1643, 0, 0.94, 2.84, 1640, 986
10:27:47.258, 52, 1656, 0, 0.86, 2.86, 1654, 986
10:27:47.476, 53, 1464, 2, 0.84, 2.58, 1475, 986
10:27:47.664, 54, 1445, 4, 0.92, 2.67, 1448, 986
10:27:47.867, 55, 1468, 6, 0.92, 2.63, 1460, 986
10:27:48.070, 56, 1483, 8, 1.04, 2.82, 1474, 986
10:27:48.148, 57, 1607, 8, 1.12, 2.94, 1604, 986
10:27:48.226, 58, 1685, 10, 1.2, 3, 1668, 986
10:27:48.320, 59, 1743, 10, 1.2, 3.04, 1740, 986
10:27:48.383, 60, 1808, 10, 1.2, 3.08, 1810, 986
10:27:48.476, 61, 1857, 10, 1.2, 3.12, 1850, 986
10:27:48.539, 62, 1905, 10, 1.2, 3.12, 1906, 986
10:27:48.617, 63, 1945, 12, 1.2, 3.12, 1940, 986
10:27:48.711, 64, 1979, 12, 1.2, 3.1, 1979, 986
10:27:48.789, 65, 2015, 12, 1.2, 3.12, 2002, 986
10:27:48.867, 66, 2043, 12, 1.2, 3.11, 2040, 986
10:27:48.945, 67, 2067, 14, 1.2, 3.09, 2062, 986
10:27:49.023, 68, 2103, 14, 1.2, 3.1, 2102, 986
10:27:49.101, 69, 2136, 14, 1.18, 3.12, 2136, 986
10:27:49.180, 70, 2145, 16, 1.18, 3.12, 2144, 986
10:27:49.258, 71, 2148, 16, 1.18, 3.12, 2148, 986
10:27:49.336, 72, 2166, 16, 1.2, 3.12, 2166, 986
10:27:49.430, 73, 2193, 16, 1.24, 3.14, 2194, 986
10:27:49.508, 74, 2225, 18, 1.24, 3.15, 2220, 986
10:27:49.601, 75, 2267, 18, 1.24, 3.16, 2264, 986
10:27:49.664, 76, 2302, 18, 1.24, 3.2, 2298, 986
10:27:49.742, 77, 2332, 20, 1.28, 3.2, 2331, 986
10:27:49.820, 78, 2363, 20, 1.32, 3.22, 2356, 986
10:27:49.898, 79, 2406, 20, 1.32, 3.24, 2400, 986
10:27:49.992, 80, 2445, 20, 1.3, 3.28, 2446, 986
10:27:50.070, 81, 2469, 22, 1.26, 3.28, 2468, 986
10:27:50.148, 82, 2482, 22, 1.26, 3.26, 2481, 986
10:27:50.226, 83, 2490, 22, 1.16, 3.26, 2494, 986
10:27:50.305, 84, 2392, 22, 1.14, 3.2, 2420, 986
10:27:50.383, 85, 2268, 24, 1.12, 3.18, 2288, 986
10:27:50.461, 86, 2175, 24, 1.12, 3.11, 2190, 986
10:27:50.539, 87, 2127, 24, 1.12, 3.07, 2125, 986
10:27:50.633, 88, 2078, 24, 1.08, 3.06, 2079, 986
10:27:50.711, 89, 2015, 26, 1.08, 3.02, 2016, 986
10:27:50.789, 90, 1963, 26, 1.24, 2.98, 1968, 986
10:27:50.883, 91, 1935, 26, 1.38, 3, 1940, 986
10:27:50.945, 92, 1948, 26, 1.4, 3, 1950, 986
10:27:51.023, 93, 1965, 26, 1.4, 2.97, 1964, 986
10:27:51.101, 94, 1974, 28, 1.4, 2.96, 1975, 986
10:27:51.195, 95, 1976, 28, 1.4, 2.96, 1975, 986
10:27:51.258, 96, 1978, 28, 1.4, 2.97, 1979, 986
10:27:51.351, 97, 1979, 28, 1.4, 2.95, 1977, 986
10:27:51.430, 98, 1979, 28, 1.4, 2.96, 1981, 991
10:27:51.508, 99, 1980, 28, 1.36, 2.94, 1975, 986
10:27:51.586, 100, 1985, 30, 1.36, 2.94, 1984, 986
10:27:51.664, 101, 1994, 30, 1.36, 2.93, 1996, 986
10:27:51.742, 102, 2002, 30, 1.36, 2.94, 1998, 986
10:27:51.820, 103, 2010, 30, 1.36, 2.95, 2008, 986
10:27:51.914, 104, 2024, 30, 1.36, 2.96, 2024, 986
10:27:51.976, 105, 2028, 32, 1.36, 2.96, 2029, 986
10:27:52.070, 106, 2038, 32, 1.5, 2.98, 2036, 986
10:27:52.148, 107, 2040, 32, 1.48, 2.98, 2044, 986
10:27:52.226, 108, 2055, 32, 1.34, 2.96, 2058, 986
10:27:52.305, 109, 2060, 32, 1.34, 2.98, 2056, 986
10:27:52.383, 110, 2068, 32, 1.34, 3, 2068, 986
10:27:52.461, 111, 2078, 34, 1.32, 3, 2075, 986
10:27:52.539, 112, 2088, 34, 1.32, 3.03, 2088, 986
10:27:52.633, 113, 2102, 34, 1.32, 3.06, 2102, 986
10:27:52.711, 114, 2114, 34, 1.32, 3.09, 2112, 986
10:27:52.789, 115, 2130, 34, 1.32, 3.14, 2129, 986
10:27:52.867, 116, 2158, 34, 1.26, 3.15, 2156, 986
10:27:52.945, 117, 2181, 34, 1.24, 3.21, 2177, 986
10:27:53.023, 118, 2199, 36, 1.24, 3.22, 2194, 986
10:27:53.101, 119, 2214, 36, 1.3, 3.23, 2212, 986
10:27:53.195, 120, 2236, 36, 1.3, 3.26, 2231, 986
10:27:53.273, 121, 2248, 36, 1.28, 3.27, 2248, 986
10:27:53.351, 122, 2252, 36, 1.28, 3.24, 2248, 986
10:27:53.430, 123, 2258, 36, 1.24, 3.24, 2258, 986
10:27:53.508, 124, 2254, 38, 1.12, 3.24, 2256, 986
10:27:53.586, 125, 2213, 38, 1.1, 3.18, 2222, 986
10:27:53.664, 126, 2210, 38, 1.1, 3.12, 2210, 986
10:27:53.742, 127, 2208, 38, 1.08, 3.09, 2210, 986
10:27:53.820, 128, 2200, 38, 1.04, 3.1, 2200, 991
10:27:53.898, 129, 2178, 38, 0.98, 3.09, 2179, 986
10:27:53.992, 130, 2127, 38, 0.98, 3.02, 2134, 986
10:27:54.055, 131, 2075, 38, 0.98, 2.98, 2072, 986
10:27:54.148, 132, 1997, 40, 0.98, 2.94, 2012, 986
10:27:54.226, 133, 1935, 40, 0.98, 2.9, 1950, 986
10:27:54.305, 134, 1866, 40, 0.98, 2.84, 1868, 986
10:27:54.383, 135, 1801, 40, 0.98, 2.78, 1816, 986
10:27:54.461, 136, 1746, 40, 0.86, 2.74, 1766, 986
10:27:54.539, 137, 1678, 40, 0.86, 2.59, 1679, 986
10:27:54.711, 138, 1635, 40, 0.82, 2.62, 1631, 986
10:27:54.773, 139, 1377, 40, 0.56, 2.59, 1448, 986
10:27:54.851, 140, 1218, 40, 0.48, 2.58, 1281, 986
10:27:54.929, 141, 1136, 40, 0.48, 2.49, 1174, 986
10:27:55.008, 142, 1080, 40, 0.48, 2.4, 1108, 986
10:27:55.086, 143, 1032, 40, 0.48, 2.33, 1054, 986
10:27:55.164, 144, 1019, 40, 0.48, 2.13, 1022, 986
10:27:55.242, 145, 994, 40, 0.48, 2.14, 1014, 986
10:27:55.336, 146, 972, 40, 0.48, 2.08, 988, 986
10:27:55.398, 147, 962, 40, 0.48, 2.04, 964, 986
10:27:55.492, 148, 938, 40, 0.48, 2.13, 958, 986
10:27:55.570, 149, 934, 40, 0.48, 2.06, 938, 986
10:27:55.648, 150, 925, 40, 0.48, 2, 924, 986
10:27:55.726, 151, 911, 40, 0.48, 1.98, 924, 986
10:27:55.805, 152, 910, 40, 0.48, 1.98, 910, 986
10:27:55.883, 153, 896, 40, 0.48, 2.04, 908, 986
10:27:55.992, 154, 890, 40, 0.48, 1.95, 892, 986
10:27:56.054, 155, 880, 40, 0.48, 1.9, 877, 986
10:27:56.117, 156, 865, 40, 0.48, 1.88, 877, 986
10:27:56.211, 157, 859, 40, 0.48, 1.87, 864, 986
10:27:56.289, 158, 846, 40, 0.48, 1.9, 856, 986
10:27:56.367, 159, 840, 38, 0.48, 1.89, 846, 986
10:27:56.445, 160, 827, 38, 0.48, 1.9, 838, 986
10:27:56.523, 161, 817, 38, 0.48, 1.84, 822, 986
10:27:56.633, 162, 804, 38, 0.48, 1.86, 806, 986
10:27:56.680, 163, 794, 38, 0.48, 1.82, 800, 986
10:27:56.773, 164, 783, 38, 0.48, 1.82, 784, 986
10:27:56.851, 165, 765, 38, 0.48, 1.78, 777, 986
10:27:56.930, 166, 754, 36, 0.48, 1.8, 760, 986
10:27:57.008, 167, 736, 36, 0.48, 1.74, 750, 986
10:27:57.086, 168, 736, 36, 0.48, 1.75, 731, 986
10:27:57.164, 169, 741, 36, 0.48, 1.71, 736, 986
10:27:57.273, 170, 745, 36, 0.48, 1.74, 736, 986
10:27:57.320, 171, 742, 34, 0.48, 1.72, 744, 986
10:27:57.414, 172, 740, 34, 0.48, 1.74, 734, 986
10:27:57.492, 173, 737, 34, 0.48, 1.72, 738, 986
10:27:57.555, 174, 737, 34, 0.48, 1.71, 729, 986
10:27:57.648, 175, 738, 32, 0.48, 1.7, 738, 986
10:27:57.726, 176, 740, 32, 0.48, 1.71, 734, 986
10:27:57.805, 177, 738, 32, 0.48, 1.7, 738, 986
10:27:57.898, 178, 742, 32, 0.48, 1.7, 734, 986
10:27:57.961, 179, 741, 30, 0.48, 1.69, 740, 986
10:27:58.039, 180, 743, 30, 0.48, 1.7, 738, 986
10:27:58.133, 181, 742, 30, 0.48, 1.68, 740, 986
10:27:58.211, 182, 745, 30, 0.48, 1.71, 740, 986
10:27:58.289, 183, 742, 28, 0.48, 1.69, 740, 986
10:27:58.367, 184, 744, 28, 0.48, 1.7, 740, 986
10:27:58.445, 185, 743, 28, 0.48, 1.68, 742, 986
10:27:58.554, 186, 745, 28, 0.48, 1.7, 742, 986
10:27:58.601, 187, 745, 28, 0.48, 1.68, 744, 986
10:27:58.695, 188, 747, 26, 0.48, 1.7, 742, 986
10:27:58.758, 189, 745, 26, 0.48, 1.7, 746, 986
10:27:58.851, 190, 744, 26, 0.48, 1.7, 740, 986
10:27:58.929, 191, 740, 26, 0.48, 1.66, 744, 986
10:27:59.008, 192, 738, 24, 0.48, 1.68, 738, 986
10:27:59.086, 193, 732, 24, 0.48, 1.68, 738, 986
10:27:59.179, 194, 730, 24, 0.48, 1.67, 731, 986
10:27:59.242, 195, 718, 22, 0.48, 1.64, 727, 986
10:27:59.320, 196, 724, 22, 0.48, 1.66, 718, 986
10:27:59.398, 197, 718, 22, 0.48, 1.66, 722, 986
10:27:59.492, 198, 727, 20, 0.48, 1.67, 720, 986
10:27:59.570, 199, 721, 20, 0.48, 1.69, 725, 986
10:27:59.648, 200, 728, 18, 0.48, 1.69, 724, 986
10:27:59.726, 201, 726, 18, 0.48, 1.69, 727, 986
10:27:59.820, 202, 734, 18, 0.48, 1.68, 729, 986
10:27:59.883, 203, 735, 16, 0.48, 1.68, 734, 986
10:27:59.961, 204, 739, 16, 0.48, 1.69, 736, 986
10:28:00.039, 205, 742, 14, 0.48, 1.66, 742, 986
10:28:00.117, 206, 749, 14, 0.48, 1.68, 746, 986
10:28:00.195, 207, 746, 14, 0.48, 1.69, 748, 986
10:28:00.289, 208, 751, 12, 0.48, 1.66, 746, 986
10:28:00.367, 209, 744, 12, 0.48, 1.68, 750, 986
10:28:00.461, 210, 744, 10, 0.48, 1.68, 744, 986
10:28:00.523, 211, 737, 10, 0.48, 1.67, 740, 986
10:28:00.601, 212, 742, 10, 0.58, 1.68, 740, 986
10:28:00.679, 213, 791, 10, 0.88, 1.7, 748, 986
10:28:00.773, 214, 845, 8, 0.88, 1.88, 825, 986
10:28:00.851, 215, 849, 8, 0.88, 2.16, 854, 986
10:28:00.929, 216, 895, 8, 0.88, 2.21, 874, 986
10:28:01.008, 217, 939, 8, 0.88, 2.21, 912, 986
10:28:01.101, 218, 982, 6, 0.88, 2.28, 966, 986
10:28:01.164, 219, 1023, 6, 0.88, 2.32, 994, 986
10:28:01.242, 220, 1058, 6, 0.88, 2.36, 1038, 986
10:28:01.320, 221, 1092, 6, 0.88, 2.4, 1074, 986
10:28:01.414, 222, 1142, 6, 0.88, 2.44, 1116, 986
10:28:01.492, 223, 1204, 6, 0.9, 2.47, 1166, 986
10:28:01.742, 224, 1311, 6, 0.92, 2.55, 1266, 986
10:28:01.820, 225, 1605, 8, 0.96, 2.84, 1604, 986
10:28:01.898, 226, 1673, 8, 1.02, 2.86, 1660, 986
10:28:01.976, 227, 1712, 8, 1.02, 2.9, 1708, 986
10:28:02.054, 228, 1754, 8, 1, 2.92, 1746, 986
10:28:02.148, 229, 1780, 8, 1, 2.94, 1775, 986
10:28:02.226, 230, 1795, 8, 1, 2.94, 1790, 986
10:28:02.304, 231, 1807, 10, 0.98, 2.9, 1806, 986
10:28:02.398, 232, 1802, 10, 0.9, 2.88, 1804, 986
10:28:02.461, 233, 1745, 10, 0.9, 2.82, 1756, 986
10:28:02.539, 234, 1712, 10, 0.9, 2.72, 1710, 986
10:28:02.633, 235, 1692, 10, 0.84, 2.66, 1694, 986
10:28:02.695, 236, 1670, 12, 0.84, 2.54, 1668, 986
10:28:02.789, 237, 1646, 12, 0.84, 2.51, 1646, 986
10:28:02.867, 238, 1646, 12, 0.86, 2.54, 1646, 986
10:28:02.945, 239, 1652, 12, 0.98, 2.6, 1650, 986
10:28:03.023, 240, 1685, 12, 1.04, 2.78, 1679, 986
10:28:03.101, 241, 1724, 12, 1.06, 2.8, 1724, 986
10:28:03.179, 242, 1766, 14, 1.06, 2.82, 1766, 986
10:28:03.258, 243, 1803, 14, 1.08, 2.81, 1802, 986
10:28:03.351, 244, 1838, 14, 1.12, 2.84, 1825, 986
10:28:03.429, 245, 1873, 14, 1.2, 2.82, 1866, 986
10:28:03.508, 246, 1898, 14, 1.26, 2.82, 1890, 986
10:28:03.586, 247, 1922, 16, 1.26, 2.84, 1920, 986
10:28:03.679, 248, 1953, 16, 1.26, 2.85, 1954, 986
10:28:03.742, 249, 1981, 16, 1.26, 2.88, 1979, 986
10:28:03.820, 250, 2009, 16, 1.26, 2.88, 2006, 986
10:28:03.898, 251, 2031, 16, 1.26, 2.9, 2031, 986
10:28:03.976, 252, 2058, 16, 1.26, 2.94, 2052, 986
10:28:04.070, 253, 2047, 18, 1.32, 2.94, 2050, 986
10:28:04.148, 254, 1984, 18, 1.34, 2.9, 1996, 986
10:28:04.226, 255, 1938, 18, 1.4, 2.89, 1944, 986
10:28:04.304, 256, 1907, 18, 1.46, 2.85, 1916, 986
10:28:04.383, 257, 1885, 18, 1.46, 2.84, 1886, 986
10:28:04.461, 258, 1872, 20, 1.52, 2.83, 1875, 986
10:28:04.539, 259, 1857, 20, 1.72, 2.9, 1858, 986
10:28:04.617, 260, 1855, 20, 1.9, 2.94, 1860, 986
10:28:04.695, 261, 1871, 20, 1.78, 2.97, 1862, 986
10:28:04.789, 262, 1892, 20, 1.52, 2.96, 1888, 986
10:28:04.867, 263, 1904, 22, 1.52, 3, 1898, 986
10:28:04.961, 264, 1909, 22, 1.52, 3, 1912, 986
10:28:05.023, 265, 1923, 22, 1.52, 3.03, 1925, 986
10:28:05.101, 266, 1937, 22, 1.6, 3.04, 1934, 986
10:28:05.179, 267, 1946, 24, 1.74, 3.06, 1948, 986
10:28:05.273, 268, 1954, 24, 1.76, 3.06, 1946, 986
10:28:05.351, 269, 1962, 24, 1.86, 3.06, 1960, 986
10:28:05.414, 270, 1967, 24, 1.86, 3.05, 1972, 986
10:28:05.508, 271, 1972, 24, 1.86, 3.06, 1970, 986
10:28:05.586, 272, 1982, 26, 1.86, 3.08, 1981, 986
10:28:05.664, 273, 1989, 26, 1.86, 3.08, 1986, 986
10:28:05.742, 274, 1995, 26, 1.86, 3.1, 1994, 986
10:28:05.820, 275, 2004, 26, 1.86, 3.1, 2002, 986
10:28:05.898, 276, 2010, 26, 1.86, 3.1, 2012, 986
10:28:05.992, 277, 2023, 28, 1.86, 3.12, 2020, 986
10:28:06.070, 278, 2036, 28, 1.9, 3.12, 2031, 986
10:28:06.148, 279, 2043, 28, 1.9, 3.14, 2046, 986
10:28:06.242, 280, 2054, 28, 1.9, 3.16, 2046, 986
10:28:06.304, 281, 2068, 30, 1.9, 3.16, 2068, 986
10:28:06.383, 282, 2087, 30, 1.9, 3.2, 2084, 986
10:28:06.461, 283, 2100, 30, 1.9, 3.21, 2100, 986
10:28:06.539, 284, 2119, 30, 1.9, 3.24, 2120, 986
10:28:06.617, 285, 2141, 30, 1.9, 3.26, 2136, 986
10:28:06.711, 286, 2152, 32, 1.9, 3.29, 2150, 986
10:28:06.789, 287, 2177, 32, 1.9, 3.3, 2174, 986
10:28:06.867, 288, 2202, 32, 1.92, 3.34, 2200, 986
10:28:06.945, 289, 2225, 32, 1.92, 3.36, 2224, 986
10:28:07.023, 290, 2250, 34, 1.92, 3.39, 2248, 986
10:28:07.101, 291, 2274, 34, 1.92, 3.43, 2272, 986
10:28:07.179, 292, 2305, 34, 1.92, 3.48, 2304, 986
10:28:07.258, 293, 2330, 34, 1.92, 3.5, 2327, 986
10:28:07.336, 294, 2364, 34, 1.92, 3.54, 2356, 986
10:28:07.429, 295, 2386, 36, 1.92, 3.56, 2386, 986
10:28:07.508, 296, 2409, 36, 1.92, 3.6, 2408, 986
10:28:07.586, 297, 2434, 36, 1.92, 3.62, 2429, 986
10:28:07.664, 298, 2447, 36, 1.92, 3.64, 2444, 986
10:28:07.742, 299, 2469, 38, 1.92, 3.67, 2470, 986
10:28:07.820, 300, 2489, 38, 1.92, 3.66, 2481, 986
10:28:07.898, 301, 2502, 38, 1.86, 3.68, 2496, 986
10:28:07.976, 302, 2517, 38, 1.86, 3.69, 2518, 986
10:28:08.070, 303, 2536, 40, 1.86, 3.69, 2531, 986
10:28:08.133, 304, 2547, 40, 1.86, 3.68, 2540, 986
10:28:08.226, 305, 2555, 40, 1.86, 3.66, 2562, 986
10:28:08.304, 306, 2571, 40, 1.86, 3.68, 2572, 986
10:28:08.383, 307, 2580, 42, 1.84, 3.65, 2577, 986
10:28:08.461, 308, 2590, 42, 1.84, 3.67, 2596, 986
10:28:08.539, 309, 2604, 42, 1.82, 3.67, 2606, 986
10:28:08.633, 310, 2613, 42, 1.82, 3.67, 2612, 986
10:28:08.711, 311, 2622, 44, 1.82, 3.67, 2614, 986
10:28:08.804, 312, 2632, 44, 1.82, 3.67, 2640, 986
10:28:08.867, 313, 2647, 44, 1.82, 3.66, 2652, 986
10:28:08.945, 314, 2663, 44, 1.82, 3.66, 2662, 986
10:28:09.023, 315, 2677, 46, 1.82, 3.68, 2674, 986
10:28:09.101, 316, 2695, 46, 1.82, 3.7, 2686, 986
10:28:09.179, 317, 2713, 46, 1.82, 3.69, 2718, 986
10:28:09.258, 318, 2733, 46, 1.86, 3.72, 2738, 986
10:28:09.351, 319, 2752, 48, 1.86, 3.74, 2752, 986
10:28:09.414, 320, 2774, 48, 1.86, 3.73, 2770, 986
10:28:09.508, 321, 2787, 48, 1.86, 3.75, 2788, 986
10:28:09.586, 322, 2803, 48, 1.86, 3.78, 2796, 986
10:28:09.664, 323, 2817, 48, 1.86, 3.78, 2820, 986
10:28:09.742, 324, 2841, 50, 1.86, 3.8, 2844, 986
10:28:09.836, 325, 2853, 50, 1.86, 3.8, 2852, 986
10:28:09.898, 326, 2873, 50, 1.86, 3.82, 2870, 986
10:28:10.148, 327, 2893, 50, 1.86, 3.84, 2898, 986
10:28:10.351, 328, 2945, 52, 1.86, 3.9, 2938, 986
10:28:10.554, 329, 2986, 52, 1.86, 3.92, 2981, 986
10:28:10.758, 330, 3020, 54, 1.88, 3.97, 3018, 986
10:28:10.945, 331, 3068, 56, 1.88, 4, 3075, 986
10:28:11.023, 332, 3098, 56, 1.88, 4.03, 3104, 986
10:28:11.101, 333, 3111, 56, 1.86, 4.03, 3114, 986
10:28:11.179, 334, 3125, 56, 1.86, 4.04, 3131, 986
10:28:11.258, 335, 3138, 58, 1.86, 4.04, 3148, 986
10:28:11.351, 336, 3153, 58, 1.86, 4.04, 3160, 986
10:28:11.429, 337, 3168, 58, 1.86, 4.05, 3160, 986
10:28:11.508, 338, 3182, 58, 1.86, 4.04, 3172, 986
10:28:11.586, 339, 3197, 58, 1.86, 4.04, 3184, 986
10:28:11.664, 340, 3213, 60, 1.84, 4.04, 3208, 986
10:28:11.742, 341, 3225, 60, 1.84, 4.05, 3229, 986
10:28:11.820, 342, 3242, 60, 1.84, 4.06, 3256, 986
10:28:11.898, 343, 3256, 60, 1.82, 4.07, 3248, 986
10:28:11.976, 344, 3266, 60, 1.78, 4.07, 3258, 986
10:28:12.070, 345, 3275, 62, 1.76, 4.06, 3272, 986
10:28:12.148, 346, 3282, 62, 1.76, 4.04, 3286, 986
10:28:12.226, 347, 3290, 62, 1.76, 4.03, 3292, 986
10:28:12.304, 348, 3292, 62, 1.76, 4, 3298, 986
10:28:12.383, 349, 3290, 62, 1.76, 4.01, 3281, 986
10:28:12.461, 350, 3299, 62, 1.76, 4, 3290, 986
10:28:12.539, 351, 3271, 62, 1.76, 4, 3270, 986
10:28:12.633, 352, 3211, 64, 1.76, 3.99, 3210, 986
10:28:12.836, 353, 3145, 64, 1.72, 3.98, 3152, 986
10:28:12.898, 354, 2895, 64, 1.62, 3.87, 2906, 986
10:28:12.976, 355, 2762, 64, 1.5, 3.76, 2784, 986
10:28:13.070, 356, 2646, 64, 1.5, 3.65, 2666, 986
10:28:13.148, 357, 2546, 64, 1.5, 3.57, 2556, 986
10:28:13.226, 358, 2485, 66, 1.5, 3.51, 2479, 986
10:28:13.304, 359, 2453, 66, 1.56, 3.48, 2458, 986
10:28:13.383, 360, 2437, 66, 1.6, 3.52, 2434, 986
10:28:13.461, 361, 2437, 66, 1.66, 3.54, 2436, 986
10:28:13.539, 362, 2450, 66, 1.74, 3.57, 2448, 986
10:28:13.617, 363, 2464, 66, 1.82, 3.61, 2464, 986
10:28:13.695, 364, 2485, 66, 1.82, 3.64, 2484, 986
10:28:13.789, 365, 2503, 66, 1.82, 3.66, 2502, 986
10:28:13.914, 366, 2523, 66, 1.82, 3.68, 2522, 986
10:28:13.976, 367, 2542, 68, 1.78, 3.74, 2538, 986
10:28:14.039, 368, 2556, 68, 1.78, 3.74, 2556, 986
10:28:14.117, 369, 2567, 68, 1.78, 3.77, 2558, 986
10:28:14.179, 370, 2576, 68, 1.78, 3.76, 2579, 986
10:28:14.258, 371, 2588, 68, 1.78, 3.79, 2590, 986
10:28:14.336, 372, 2593, 68, 1.78, 3.78, 2590, 986
10:28:14.429, 373, 2599, 68, 1.68, 3.75, 2604, 986
10:28:14.508, 374, 2601, 68, 1.7, 3.72, 2600, 986
10:28:14.586, 375, 2596, 68, 1.7, 3.69, 2594, 986
10:28:14.664, 376, 2590, 68, 1.7, 3.66, 2584, 986
10:28:14.742, 377, 2585, 70, 1.7, 3.63, 2588, 986
10:28:14.820, 378, 2585, 70, 1.68, 3.62, 2584, 986
10:28:14.898, 379, 2580, 70, 1.68, 3.62, 2579, 986
10:28:14.992, 380, 2580, 70, 1.68, 3.61, 2574, 986
10:28:15.070, 381, 2586, 70, 1.66, 3.6, 2586, 986
10:28:15.179, 382, 2579, 70, 1.66, 3.58, 2579, 991
10:28:15.242, 383, 2591, 70, 1.66, 3.58, 2581, 986
10:28:15.304, 384, 2590, 70, 1.62, 3.6, 2592, 986
10:28:15.383, 385, 2596, 70, 1.62, 3.61, 2598, 986
10:28:15.461, 386, 2601, 70, 1.6, 3.62, 2600, 986
10:28:15.539, 387, 2601, 72, 1.6, 3.6, 2596, 986
10:28:15.617, 388, 2596, 72, 1.6, 3.6, 2600, 986
10:28:15.711, 389, 2607, 72, 1.56, 3.61, 2604, 986
10:28:15.789, 390, 2599, 72, 1.56, 3.62, 2596, 986
10:28:15.867, 391, 2600, 72, 1.56, 3.63, 2590, 986
10:28:15.945, 392, 2602, 72, 1.56, 3.63, 2600, 986
10:28:16.023, 393, 2594, 72, 1.56, 3.62, 2594, 986
10:28:16.101, 394, 2522, 72, 1.56, 3.64, 2525, 986
10:28:16.179, 395, 2441, 72, 1.56, 3.62, 2458, 986
10:28:16.258, 396, 2389, 72, 1.56, 3.61, 2392, 986
10:28:16.336, 397, 2341, 72, 1.6, 3.58, 2342, 986
10:28:16.461, 398, 2309, 72, 1.6, 3.57, 2310, 986
10:28:16.523, 399, 2277, 72, 1.62, 3.54, 2275, 986
10:28:16.586, 400, 2258, 72, 1.62, 3.53, 2258, 986
10:28:16.664, 401, 2246, 74, 1.62, 3.52, 2244, 986
10:28:16.742, 402, 2244, 74, 1.62, 3.51, 2248, 986
10:28:16.820, 403, 2245, 74, 1.62, 3.48, 2242, 986
10:28:16.914, 404, 2246, 74, 1.62, 3.5, 2246, 986
10:28:16.976, 405, 2246, 74, 1.62, 3.5, 2242, 986
10:28:17.070, 406, 2246, 74, 1.66, 3.49, 2246, 986
10:28:17.148, 407, 2252, 74, 1.66, 3.48, 2248, 986
10:28:17.226, 408, 2258, 74, 1.66, 3.5, 2258, 986
10:28:17.304, 409, 2264, 74, 1.66, 3.52, 2262, 986
10:28:17.383, 410, 2264, 74, 1.66, 3.51, 2266, 986
10:28:17.461, 411, 2265, 74, 1.66, 3.53, 2262, 986
10:28:17.539, 412, 2267, 74, 1.66, 3.55, 2266, 986
10:28:17.633, 413, 2273, 74, 1.66, 3.54, 2268, 986
10:28:17.742, 414, 2274, 74, 1.66, 3.55, 2272, 986
10:28:17.804, 415, 2276, 74, 1.66, 3.55, 2275, 986
10:28:17.867, 416, 2277, 76, 1.66, 3.56, 2277, 986
10:28:17.945, 417, 2281, 76, 1.66, 3.57, 2281, 986
10:28:18.023, 418, 2282, 76, 1.66, 3.56, 2286, 986
10:28:18.101, 419, 2283, 76, 1.66, 3.58, 2281, 986
10:28:18.179, 420, 2286, 76, 1.72, 3.58, 2286, 986
10:28:18.258, 421, 2294, 76, 1.84, 3.59, 2294, 986
10:28:18.351, 422, 2317, 76, 1.9, 3.6, 2316, 986
10:28:18.429, 423, 2332, 76, 1.9, 3.62, 2329, 986
10:28:18.508, 424, 2336, 76, 1.9, 3.64, 2334, 986
10:28:18.586, 425, 2344, 76, 1.88, 3.65, 2342, 986
10:28:18.664, 426, 2348, 76, 1.88, 3.66, 2346, 986
10:28:18.742, 427, 2353, 76, 1.88, 3.68, 2354, 986
10:28:18.820, 428, 2355, 76, 1.9, 3.68, 2360, 986
10:28:18.914, 429, 2361, 76, 1.92, 3.7, 2364, 986
10:28:19.023, 430, 2367, 76, 1.94, 3.68, 2364, 986
10:28:19.086, 431, 2367, 76, 1.94, 3.72, 2366, 986
10:28:19.148, 432, 2374, 78, 1.94, 3.71, 2374, 986
10:28:19.226, 433, 2376, 78, 1.94, 3.72, 2370, 986
10:28:19.304, 434, 2376, 78, 1.92, 3.72, 2379, 986
10:28:19.383, 435, 2380, 78, 1.92, 3.72, 2377, 986
10:28:19.461, 436, 2381, 78, 1.9, 3.72, 2386, 986
10:28:19.539, 437, 2385, 78, 1.86, 3.73, 2381, 986
10:28:19.617, 438, 2380, 78, 1.82, 3.73, 2377, 986
10:28:19.695, 439, 2381, 78, 1.82, 3.72, 2377, 986
10:28:19.789, 440, 2380, 78, 1.82, 3.72, 2379, 986
10:28:19.867, 441, 2376, 78, 1.82, 3.71, 2375, 986
10:28:19.945, 442, 2377, 78, 1.8, 3.7, 2377, 986
10:28:20.023, 443, 2371, 78, 1.76, 3.7, 2372, 986
10:28:20.101, 444, 2371, 78, 1.74, 3.7, 2372, 986
10:28:20.179, 445, 2363, 78, 1.66, 3.7, 2364, 986
10:28:20.304, 446, 2355, 78, 1.66, 3.68, 2358, 986
10:28:20.351, 447, 2346, 80, 1.66, 3.66, 2350, 986
10:28:20.414, 448, 2338, 80, 1.66, 3.66, 2344, 986
10:28:20.508, 449, 2338, 80, 1.66, 3.64, 2334, 986
10:28:20.586, 450, 2333, 80, 1.66, 3.63, 2334, 986
10:28:20.664, 451, 2334, 80, 1.66, 3.62, 2329, 986
10:28:20.742, 452, 2327, 80, 1.66, 3.63, 2324, 986
10:28:20.820, 453, 2327, 80, 1.66, 3.62, 2327, 986
10:28:20.898, 454, 2328, 80, 1.66, 3.63, 2325, 986
10:28:20.992, 455, 2328, 80, 1.64, 3.62, 2329, 986
10:28:21.070, 456, 2330, 80, 1.66, 3.62, 2329, 986
10:28:21.148, 457, 2327, 80, 1.64, 3.65, 2334, 986
10:28:21.226, 458, 2332, 80, 1.68, 3.61, 2334, 986
10:28:21.304, 459, 2331, 80, 1.7, 3.62, 2331, 986
10:28:21.383, 460, 2337, 80, 1.7, 3.63, 2336, 986
10:28:21.461, 461, 2338, 80, 1.7, 3.64, 2336, 986
10:28:21.586, 462, 2342, 80, 1.7, 3.64, 2342, 986
10:28:21.633, 463, 2343, 80, 1.74, 3.64, 2336, 986
10:28:21.711, 464, 2346, 80, 1.76, 3.64, 2348, 986
10:28:21.789, 465, 2354, 80, 1.8, 3.66, 2350, 986
10:28:21.867, 466, 2360, 80, 1.9, 3.67, 2362, 986
10:28:21.945, 467, 2370, 80, 1.9, 3.69, 2366, 986
10:28:22.023, 468, 2377, 80, 1.9, 3.7, 2375, 986
10:28:22.101, 469, 2386, 80, 1.9, 3.72, 2384, 986
10:28:22.179, 470, 2391, 80, 1.9, 3.72, 2392, 986
10:28:22.258, 471, 2393, 80, 1.9, 3.7, 2398, 986